#datetime,building,power
2022-02-27T00:00:00,mfh,17.92
2022-02-27T00:01:00,mfh,17.91
2022-02-27T00:02:00,mfh,18.17
2022-02-27T00:03:00,mfh,18.10
2022-02-27T00:04:00,mfh,17.46
2022-02-27T00:05:00,mfh,17.49
2022-02-27T00:06:00,mfh,17.85
2022-02-27T00:07:00,mfh,17.33
2022-02-27T00:08:00,mfh,17.97
2022-02-27T00:09:00,mfh,17.96
2022-02-27T00:10:00,mfh,17.77
2022-02-27T00:11:00,mfh,15.84
2022-02-27T00:12:00,mfh,15.16
2022-02-27T00:13:00,mfh,15.22
2022-02-27T00:14:00,mfh,15.21
2022-02-27T00:15:00,mfh,15.21
2022-02-27T00:16:00,mfh,15.74
2022-02-27T00:17:00,mfh,17.07
2022-02-27T00:18:00,mfh,15.77
2022-02-27T00:19:00,mfh,16.01
2022-02-27T00:20:00,mfh,15.14
2022-02-27T00:21:00,mfh,15.12
2022-02-27T00:22:00,mfh,15.36
2022-02-27T00:23:00,mfh,15.38
2022-02-27T00:24:00,mfh,15.33
2022-02-27T00:25:00,mfh,16.04
2022-02-27T00:26:00,mfh,16.00
2022-02-27T00:27:00,mfh,16.05
2022-02-27T00:28:00,mfh,15.97
2022-02-27T00:29:00,mfh,15.60
2022-02-27T00:30:00,mfh,15.12
2022-02-27T00:31:00,mfh,16.02
2022-02-27T00:32:00,mfh,16.04
2022-02-27T00:33:00,mfh,16.62
2022-02-27T00:34:00,mfh,16.74
2022-02-27T00:35:00,mfh,16.05
2022-02-27T00:36:00,mfh,16.94
2022-02-27T00:37:00,mfh,15.30
2022-02-27T00:38:00,mfh,15.39
2022-02-27T00:39:00,mfh,15.54
2022-02-27T00:40:00,mfh,15.54
2022-02-27T00:41:00,mfh,16.12
2022-02-27T00:42:00,mfh,16.33
2022-02-27T00:43:00,mfh,16.44
2022-02-27T00:44:00,mfh,16.48
2022-02-27T00:45:00,mfh,15.76
2022-02-27T00:46:00,mfh,15.74
2022-02-27T00:47:00,mfh,15.70
2022-02-27T00:48:00,mfh,15.69
2022-02-27T00:49:00,mfh,16.30
2022-02-27T00:50:00,mfh,16.21
2022-02-27T00:51:00,mfh,16.43
2022-02-27T00:52:00,mfh,16.14
2022-02-27T00:53:00,mfh,18.19
2022-02-27T00:54:00,mfh,17.40
2022-02-27T00:55:00,mfh,18.36
2022-02-27T00:56:00,mfh,17.45
2022-02-27T00:57:00,mfh,17.66
2022-02-27T00:58:00,mfh,18.21
2022-02-27T00:59:00,mfh,18.21
2022-02-27T01:00:00,mfh,18.21
2022-02-27T01:01:00,mfh,18.44
2022-02-27T01:02:00,mfh,17.98
2022-02-27T01:03:00,mfh,18.47
2022-02-27T01:04:00,mfh,17.87
2022-02-27T01:05:00,mfh,18.37
2022-02-27T01:06:00,mfh,18.26
2022-02-27T01:07:00,mfh,18.25
2022-02-27T01:08:00,mfh,18.26
2022-02-27T01:09:00,mfh,18.20
2022-02-27T01:10:00,mfh,18.03
2022-02-27T01:11:00,mfh,17.38
2022-02-27T01:12:00,mfh,17.46
2022-02-27T01:13:00,mfh,17.41
2022-02-27T01:14:00,mfh,17.99
2022-02-27T01:15:00,mfh,18.03
2022-02-27T01:16:00,mfh,18.02
2022-02-27T01:17:00,mfh,18.45
2022-02-27T01:18:00,mfh,16.97
2022-02-27T01:19:00,mfh,15.25
2022-02-27T01:20:00,mfh,15.25
2022-02-27T01:21:00,mfh,15.26
2022-02-27T01:22:00,mfh,15.48
2022-02-27T01:23:00,mfh,16.53
2022-02-27T01:24:00,mfh,16.19
2022-02-27T01:25:00,mfh,16.29
2022-02-27T01:26:00,mfh,16.32
2022-02-27T01:27:00,mfh,16.09
2022-02-27T01:28:00,mfh,15.78
2022-02-27T01:29:00,mfh,15.76
2022-02-27T01:30:00,mfh,16.50
2022-02-27T01:31:00,mfh,16.09
2022-02-27T01:32:00,mfh,16.12
2022-02-27T01:33:00,mfh,16.06
2022-02-27T01:34:00,mfh,16.17
2022-02-27T01:35:00,mfh,15.50
2022-02-27T01:36:00,mfh,15.38
2022-02-27T01:37:00,mfh,15.48
2022-02-27T01:38:00,mfh,15.50
2022-02-27T01:39:00,mfh,16.11
2022-02-27T01:40:00,mfh,16.13
2022-02-27T01:41:00,mfh,16.20
2022-02-27T01:42:00,mfh,16.91
2022-02-27T01:43:00,mfh,16.43
2022-02-27T01:44:00,mfh,15.63
2022-02-27T01:45:00,mfh,16.16
2022-02-27T01:46:00,mfh,15.51
2022-02-27T01:47:00,mfh,16.11
2022-02-27T01:48:00,mfh,16.21
2022-02-27T01:49:00,mfh,16.25
2022-02-27T01:50:00,mfh,16.71
2022-02-27T01:51:00,mfh,16.23
2022-02-27T01:52:00,mfh,15.66
2022-02-27T01:53:00,mfh,15.70
2022-02-27T01:54:00,mfh,15.62
2022-02-27T01:55:00,mfh,15.61
2022-02-27T01:56:00,mfh,16.30
2022-02-27T01:57:00,mfh,16.22
2022-02-27T01:58:00,mfh,18.13
2022-02-27T01:59:00,mfh,18.11
2022-02-27T02:00:00,mfh,18.15
2022-02-27T02:01:00,mfh,17.44
2022-02-27T02:02:00,mfh,17.65
2022-02-27T02:03:00,mfh,18.05
2022-02-27T02:04:00,mfh,18.21
2022-02-27T02:05:00,mfh,18.25
2022-02-27T02:06:00,mfh,18.59
2022-02-27T02:07:00,mfh,18.71
2022-02-27T02:08:00,mfh,17.56
2022-02-27T02:09:00,mfh,17.40
2022-02-27T02:10:00,mfh,17.55
2022-02-27T02:11:00,mfh,17.19
2022-02-27T02:12:00,mfh,18.54
2022-02-27T02:13:00,mfh,17.97
2022-02-27T02:14:00,mfh,18.06
2022-02-27T02:15:00,mfh,18.13
2022-02-27T02:16:00,mfh,18.55
2022-02-27T02:17:00,mfh,17.50
2022-02-27T02:18:00,mfh,17.96
2022-02-27T02:19:00,mfh,17.73
2022-02-27T02:20:00,mfh,17.87
2022-02-27T02:21:00,mfh,18.19
2022-02-27T02:22:00,mfh,18.39
2022-02-27T02:23:00,mfh,16.41
2022-02-27T02:24:00,mfh,16.41
2022-02-27T02:25:00,mfh,15.67
2022-02-27T02:26:00,mfh,15.84
2022-02-27T02:27:00,mfh,15.85
2022-02-27T02:28:00,mfh,15.82
2022-02-27T02:29:00,mfh,16.51
2022-02-27T02:30:00,mfh,16.46
2022-02-27T02:31:00,mfh,16.41
2022-02-27T02:32:00,mfh,16.52
2022-02-27T02:33:00,mfh,16.46
2022-02-27T02:34:00,mfh,15.69
2022-02-27T02:35:00,mfh,15.54
2022-02-27T02:36:00,mfh,15.54
2022-02-27T02:37:00,mfh,15.38
2022-02-27T02:38:00,mfh,17.23
2022-02-27T02:39:00,mfh,16.88
2022-02-27T02:40:00,mfh,16.89
2022-02-27T02:41:00,mfh,16.87
2022-02-27T02:42:00,mfh,15.58
2022-02-27T02:43:00,mfh,15.54
2022-02-27T02:44:00,mfh,15.71
2022-02-27T02:45:00,mfh,15.64
2022-02-27T02:46:00,mfh,16.24
2022-02-27T02:47:00,mfh,16.30
2022-02-27T02:48:00,mfh,16.23
2022-02-27T02:49:00,mfh,16.29
2022-02-27T02:50:00,mfh,16.10
2022-02-27T02:51:00,mfh,15.42
2022-02-27T02:52:00,mfh,15.37
2022-02-27T02:53:00,mfh,15.35
2022-02-27T02:54:00,mfh,16.03
2022-02-27T02:55:00,mfh,16.62
2022-02-27T02:56:00,mfh,15.96
2022-02-27T02:57:00,mfh,16.09
2022-02-27T02:58:00,mfh,16.03
2022-02-27T02:59:00,mfh,16.39
2022-02-27T03:00:00,mfh,15.53
2022-02-27T03:01:00,mfh,15.37
2022-02-27T03:02:00,mfh,15.72
2022-02-27T03:03:00,mfh,18.27
2022-02-27T03:04:00,mfh,18.24
2022-02-27T03:05:00,mfh,18.23
2022-02-27T03:06:00,mfh,18.27
2022-02-27T03:07:00,mfh,18.23
2022-02-27T03:08:00,mfh,17.50
2022-02-27T03:09:00,mfh,17.58
2022-02-27T03:10:00,mfh,17.45
2022-02-27T03:11:00,mfh,17.40
2022-02-27T03:12:00,mfh,18.03
2022-02-27T03:13:00,mfh,18.05
2022-02-27T03:14:00,mfh,17.93
2022-02-27T03:15:00,mfh,17.96
2022-02-27T03:16:00,mfh,17.34
2022-02-27T03:17:00,mfh,17.50
2022-02-27T03:18:00,mfh,17.43
2022-02-27T03:19:00,mfh,18.26
2022-02-27T03:20:00,mfh,18.16
2022-02-27T03:21:00,mfh,18.07
2022-02-27T03:22:00,mfh,18.92
2022-02-27T03:23:00,mfh,18.40
2022-02-27T03:24:00,mfh,17.71
2022-02-27T03:25:00,mfh,27.59
2022-02-27T03:26:00,mfh,27.96
2022-02-27T03:27:00,mfh,28.11
2022-02-27T03:28:00,mfh,28.72
2022-02-27T03:29:00,mfh,26.73
2022-02-27T03:30:00,mfh,26.67
2022-02-27T03:31:00,mfh,26.42
2022-02-27T03:32:00,mfh,26.33
2022-02-27T03:33:00,mfh,26.42
2022-02-27T03:34:00,mfh,25.53
2022-02-27T03:35:00,mfh,25.49
2022-02-27T03:36:00,mfh,26.17
2022-02-27T03:37:00,mfh,26.15
2022-02-27T03:38:00,mfh,26.11
2022-02-27T03:39:00,mfh,26.02
2022-02-27T03:40:00,mfh,26.18
2022-02-27T03:41:00,mfh,25.75
2022-02-27T03:42:00,mfh,25.63
2022-02-27T03:43:00,mfh,25.76
2022-02-27T03:44:00,mfh,25.79
2022-02-27T03:45:00,mfh,26.50
2022-02-27T03:46:00,mfh,26.51
2022-02-27T03:47:00,mfh,26.44
2022-02-27T03:48:00,mfh,26.44
2022-02-27T03:49:00,mfh,25.94
2022-02-27T03:50:00,mfh,25.75
2022-02-27T03:51:00,mfh,25.76
2022-02-27T03:52:00,mfh,25.76
2022-02-27T03:53:00,mfh,26.32
2022-02-27T03:54:00,mfh,26.40
2022-02-27T03:55:00,mfh,26.41
2022-02-27T03:56:00,mfh,26.71
2022-02-27T03:57:00,mfh,25.76
2022-02-27T03:58:00,mfh,25.76
2022-02-27T03:59:00,mfh,25.74
2022-02-27T04:00:00,mfh,25.67
2022-02-27T04:01:00,mfh,25.66
2022-02-27T04:02:00,mfh,26.37
2022-02-27T04:03:00,mfh,26.61
2022-02-27T04:04:00,mfh,26.59
2022-02-27T04:05:00,mfh,26.58
2022-02-27T04:06:00,mfh,25.66
2022-02-27T04:07:00,mfh,25.98
2022-02-27T04:08:00,mfh,27.88
2022-02-27T04:09:00,mfh,27.81
2022-02-27T04:10:00,mfh,28.51
2022-02-27T04:11:00,mfh,28.58
2022-02-27T04:12:00,mfh,28.63
2022-02-27T04:13:00,mfh,28.78
2022-02-27T04:14:00,mfh,28.48
2022-02-27T04:15:00,mfh,28.09
2022-02-27T04:16:00,mfh,28.22
2022-02-27T04:17:00,mfh,28.31
2022-02-27T04:18:00,mfh,28.87
2022-02-27T04:19:00,mfh,29.64
2022-02-27T04:20:00,mfh,29.08
2022-02-27T04:21:00,mfh,29.08
2022-02-27T04:22:00,mfh,29.34
2022-02-27T04:23:00,mfh,28.64
2022-02-27T04:24:00,mfh,29.15
2022-02-27T04:25:00,mfh,28.57
2022-02-27T04:26:00,mfh,29.14
2022-02-27T04:27:00,mfh,29.17
2022-02-27T04:28:00,mfh,29.31
2022-02-27T04:29:00,mfh,29.81
2022-02-27T04:30:00,mfh,29.13
2022-02-27T04:31:00,mfh,29.76
2022-02-27T04:32:00,mfh,29.04
2022-02-27T04:33:00,mfh,28.53
2022-02-27T04:34:00,mfh,26.56
2022-02-27T04:35:00,mfh,27.16
2022-02-27T04:36:00,mfh,27.09
2022-02-27T04:37:00,mfh,27.12
2022-02-27T04:38:00,mfh,27.19
2022-02-27T04:39:00,mfh,27.06
2022-02-27T04:40:00,mfh,26.36
2022-02-27T04:41:00,mfh,26.65
2022-02-27T04:42:00,mfh,26.39
2022-02-27T04:43:00,mfh,27.26
2022-02-27T04:44:00,mfh,27.22
2022-02-27T04:45:00,mfh,27.19
2022-02-27T04:46:00,mfh,28.00
2022-02-27T04:47:00,mfh,28.22
2022-02-27T04:48:00,mfh,27.72
2022-02-27T04:49:00,mfh,27.29
2022-02-27T04:50:00,mfh,26.74
2022-02-27T04:51:00,mfh,25.95
2022-02-27T04:52:00,mfh,26.57
2022-02-27T04:53:00,mfh,26.72
2022-02-27T04:54:00,mfh,26.76
2022-02-27T04:55:00,mfh,26.76
2022-02-27T04:56:00,mfh,26.34
2022-02-27T04:57:00,mfh,26.01
2022-02-27T04:58:00,mfh,26.69
2022-02-27T04:59:00,mfh,25.99
2022-02-27T05:00:00,mfh,26.25
2022-02-27T05:01:00,mfh,44.55
2022-02-27T05:02:00,mfh,47.68
2022-02-27T05:03:00,mfh,47.50
2022-02-27T05:04:00,mfh,47.58
2022-02-27T05:05:00,mfh,47.60
2022-02-27T05:06:00,mfh,46.74
2022-02-27T05:07:00,mfh,46.99
2022-02-27T05:08:00,mfh,45.82
2022-02-27T05:09:00,mfh,45.94
2022-02-27T05:10:00,mfh,47.17
2022-02-27T05:11:00,mfh,47.28
2022-02-27T05:12:00,mfh,47.48
2022-02-27T05:13:00,mfh,49.55
2022-02-27T05:14:00,mfh,48.87
2022-02-27T05:15:00,mfh,48.67
2022-02-27T05:16:00,mfh,48.65
2022-02-27T05:17:00,mfh,48.50
2022-02-27T05:18:00,mfh,49.09
2022-02-27T05:19:00,mfh,48.72
2022-02-27T05:20:00,mfh,48.86
2022-02-27T05:21:00,mfh,48.84
2022-02-27T05:22:00,mfh,48.36
2022-02-27T05:23:00,mfh,48.38
2022-02-27T05:24:00,mfh,48.32
2022-02-27T05:25:00,mfh,48.35
2022-02-27T05:26:00,mfh,49.07
2022-02-27T05:27:00,mfh,49.53
2022-02-27T05:28:00,mfh,49.62
2022-02-27T05:29:00,mfh,50.76
2022-02-27T05:30:00,mfh,50.00
2022-02-27T05:31:00,mfh,49.93
2022-02-27T05:32:00,mfh,50.54
2022-02-27T05:33:00,mfh,49.54
2022-02-27T05:34:00,mfh,49.52
2022-02-27T05:35:00,mfh,49.96
2022-02-27T05:36:00,mfh,49.84
2022-02-27T05:37:00,mfh,49.49
2022-02-27T05:38:00,mfh,49.54
2022-02-27T05:39:00,mfh,46.88
2022-02-27T05:40:00,mfh,46.81
2022-02-27T05:41:00,mfh,46.84
2022-02-27T05:42:00,mfh,46.87
2022-02-27T05:43:00,mfh,47.73
2022-02-27T05:44:00,mfh,47.57
2022-02-27T05:45:00,mfh,47.61
2022-02-27T05:46:00,mfh,48.12
2022-02-27T05:47:00,mfh,47.01
2022-02-27T05:48:00,mfh,47.10
2022-02-27T05:49:00,mfh,47.07
2022-02-27T05:50:00,mfh,46.90
2022-02-27T05:51:00,mfh,47.48
2022-02-27T05:52:00,mfh,47.48
2022-02-27T05:53:00,mfh,47.58
2022-02-27T05:54:00,mfh,47.50
2022-02-27T05:55:00,mfh,47.43
2022-02-27T05:56:00,mfh,46.89
2022-02-27T05:57:00,mfh,46.92
2022-02-27T05:58:00,mfh,46.94
2022-02-27T05:59:00,mfh,47.44
2022-02-27T06:00:00,mfh,47.56
2022-02-27T06:01:00,mfh,48.52
2022-02-27T06:02:00,mfh,47.80
2022-02-27T06:03:00,mfh,47.56
2022-02-27T06:04:00,mfh,46.86
2022-02-27T06:05:00,mfh,46.79
2022-02-27T06:06:00,mfh,47.13
2022-02-27T06:07:00,mfh,47.20
2022-02-27T06:08:00,mfh,47.76
2022-02-27T06:09:00,mfh,48.43
2022-02-27T06:10:00,mfh,47.82
2022-02-27T06:11:00,mfh,47.38
2022-02-27T06:12:00,mfh,47.49
2022-02-27T06:13:00,mfh,46.70
2022-02-27T06:14:00,mfh,46.51
2022-02-27T06:15:00,mfh,46.51
2022-02-27T06:16:00,mfh,46.56
2022-02-27T06:17:00,mfh,47.22
2022-02-27T06:18:00,mfh,47.27
2022-02-27T06:19:00,mfh,47.41
2022-02-27T06:20:00,mfh,47.49
2022-02-27T06:21:00,mfh,47.29
2022-02-27T06:22:00,mfh,49.13
2022-02-27T06:23:00,mfh,48.77
2022-02-27T06:24:00,mfh,49.22
2022-02-27T06:25:00,mfh,49.55
2022-02-27T06:26:00,mfh,48.86
2022-02-27T06:27:00,mfh,48.94
2022-02-27T06:28:00,mfh,48.75
2022-02-27T06:29:00,mfh,47.79
2022-02-27T06:30:00,mfh,47.91
2022-02-27T06:31:00,mfh,47.95
2022-02-27T06:32:00,mfh,47.50
2022-02-27T06:33:00,mfh,48.46
2022-02-27T06:34:00,mfh,48.33
2022-02-27T06:35:00,mfh,48.32
2022-02-27T06:36:00,mfh,48.47
2022-02-27T06:37:00,mfh,48.47
2022-02-27T06:38:00,mfh,47.56
2022-02-27T06:39:00,mfh,47.41
2022-02-27T06:40:00,mfh,47.37
2022-02-27T06:41:00,mfh,47.42
2022-02-27T06:42:00,mfh,48.56
2022-02-27T06:43:00,mfh,48.49
2022-02-27T06:44:00,mfh,48.45
2022-02-27T06:45:00,mfh,48.71
2022-02-27T06:46:00,mfh,48.68
2022-02-27T06:47:00,mfh,46.01
2022-02-27T06:48:00,mfh,46.10
2022-02-27T06:49:00,mfh,46.05
2022-02-27T06:50:00,mfh,45.82
2022-02-27T06:51:00,mfh,46.55
2022-02-27T06:52:00,mfh,46.38
2022-02-27T06:53:00,mfh,46.87
2022-02-27T06:54:00,mfh,46.60
2022-02-27T06:55:00,mfh,45.97
2022-02-27T06:56:00,mfh,45.94
2022-02-27T06:57:00,mfh,46.38
2022-02-27T06:58:00,mfh,46.97
2022-02-27T06:59:00,mfh,46.59
2022-02-27T07:00:00,mfh,46.56
2022-02-27T07:01:00,mfh,47.35
2022-02-27T07:02:00,mfh,47.54
2022-02-27T07:03:00,mfh,46.73
2022-02-27T07:04:00,mfh,46.68
2022-02-27T07:05:00,mfh,46.48
2022-02-27T07:06:00,mfh,45.79
2022-02-27T07:07:00,mfh,46.42
2022-02-27T07:08:00,mfh,46.33
2022-02-27T07:09:00,mfh,46.10
2022-02-27T07:10:00,mfh,46.46
2022-02-27T07:11:00,mfh,46.14
2022-02-27T07:12:00,mfh,45.37
2022-02-27T07:13:00,mfh,45.45
2022-02-27T07:14:00,mfh,45.44
2022-02-27T07:15:00,mfh,45.45
2022-02-27T07:16:00,mfh,45.99
2022-02-27T07:17:00,mfh,45.91
2022-02-27T07:18:00,mfh,46.23
2022-02-27T07:19:00,mfh,46.19
2022-02-27T07:20:00,mfh,45.74
2022-02-27T07:21:00,mfh,45.68
2022-02-27T07:22:00,mfh,46.10
2022-02-27T07:23:00,mfh,46.08
2022-02-27T07:24:00,mfh,46.73
2022-02-27T07:25:00,mfh,46.63
2022-02-27T07:26:00,mfh,46.66
2022-02-27T07:27:00,mfh,46.69
2022-02-27T07:28:00,mfh,46.01
2022-02-27T07:29:00,mfh,47.87
2022-02-27T07:30:00,mfh,47.79
2022-02-27T07:31:00,mfh,47.60
2022-02-27T07:32:00,mfh,56.16
2022-02-27T07:33:00,mfh,68.73
2022-02-27T07:34:00,mfh,70.21
2022-02-27T07:35:00,mfh,71.02
2022-02-27T07:36:00,mfh,71.10
2022-02-27T07:37:00,mfh,70.46
2022-02-27T07:38:00,mfh,70.44
2022-02-27T07:39:00,mfh,70.39
2022-02-27T07:40:00,mfh,70.90
2022-02-27T07:41:00,mfh,71.11
2022-02-27T07:42:00,mfh,71.28
2022-02-27T07:43:00,mfh,72.03
2022-02-27T07:44:00,mfh,72.16
2022-02-27T07:45:00,mfh,71.37
2022-02-27T07:46:00,mfh,71.30
2022-02-27T07:47:00,mfh,71.22
2022-02-27T07:48:00,mfh,71.12
2022-02-27T07:49:00,mfh,64.90
2022-02-27T07:50:00,mfh,49.78
2022-02-27T07:51:00,mfh,49.76
2022-02-27T07:52:00,mfh,49.79
2022-02-27T07:53:00,mfh,49.79
2022-02-27T07:54:00,mfh,49.15
2022-02-27T07:55:00,mfh,47.47
2022-02-27T07:56:00,mfh,47.33
2022-02-27T07:57:00,mfh,47.82
2022-02-27T07:58:00,mfh,47.70
2022-02-27T07:59:00,mfh,48.31
2022-02-27T08:00:00,mfh,47.91
2022-02-27T08:01:00,mfh,48.11
2022-02-27T08:02:00,mfh,47.35
2022-02-27T08:03:00,mfh,47.30
2022-02-27T08:04:00,mfh,48.30
2022-02-27T08:05:00,mfh,47.44
2022-02-27T08:06:00,mfh,47.66
2022-02-27T08:07:00,mfh,47.61
2022-02-27T08:08:00,mfh,47.72
2022-02-27T08:09:00,mfh,47.42
2022-02-27T08:10:00,mfh,46.74
2022-02-27T08:11:00,mfh,46.93
2022-02-27T08:12:00,mfh,46.93
2022-02-27T08:13:00,mfh,46.88
2022-02-27T08:14:00,mfh,47.18
2022-02-27T08:15:00,mfh,47.70
2022-02-27T08:16:00,mfh,48.06
2022-02-27T08:17:00,mfh,48.19
2022-02-27T08:18:00,mfh,47.92
2022-02-27T08:19:00,mfh,48.37
2022-02-27T08:20:00,mfh,48.48
2022-02-27T08:21:00,mfh,48.44
2022-02-27T08:22:00,mfh,48.78
2022-02-27T08:23:00,mfh,49.23
2022-02-27T08:24:00,mfh,49.31
2022-02-27T08:25:00,mfh,46.48
2022-02-27T08:26:00,mfh,46.48
2022-02-27T08:27:00,mfh,45.76
2022-02-27T08:28:00,mfh,45.96
2022-02-27T08:29:00,mfh,45.95
2022-02-27T08:30:00,mfh,45.77
2022-02-27T08:31:00,mfh,46.45
2022-02-27T08:32:00,mfh,46.54
2022-02-27T08:33:00,mfh,47.75
2022-02-27T08:34:00,mfh,47.80
2022-02-27T08:35:00,mfh,48.54
2022-02-27T08:36:00,mfh,47.94
2022-02-27T08:37:00,mfh,47.20
2022-02-27T08:38:00,mfh,47.18
2022-02-27T08:39:00,mfh,49.13
2022-02-27T08:40:00,mfh,49.64
2022-02-27T08:41:00,mfh,49.70
2022-02-27T08:42:00,mfh,49.88
2022-02-27T08:43:00,mfh,49.89
2022-02-27T08:44:00,mfh,49.13
2022-02-27T08:45:00,mfh,49.11
2022-02-27T08:46:00,mfh,49.08
2022-02-27T08:47:00,mfh,49.28
2022-02-27T08:48:00,mfh,50.66
2022-02-27T08:49:00,mfh,50.01
2022-02-27T08:50:00,mfh,49.93
2022-02-27T08:51:00,mfh,50.55
2022-02-27T08:52:00,mfh,50.26
2022-02-27T08:53:00,mfh,49.33
2022-02-27T08:54:00,mfh,50.17
2022-02-27T08:55:00,mfh,50.50
2022-02-27T08:56:00,mfh,51.34
2022-02-27T08:57:00,mfh,50.94
2022-02-27T08:58:00,mfh,51.60
2022-02-27T08:59:00,mfh,51.15
2022-02-27T09:00:00,mfh,51.78
2022-02-27T09:01:00,mfh,51.13
2022-02-27T09:02:00,mfh,51.73
2022-02-27T09:03:00,mfh,51.70
2022-02-27T09:04:00,mfh,49.41
2022-02-27T09:05:00,mfh,49.93
2022-02-27T09:06:00,mfh,50.41
2022-02-27T09:07:00,mfh,50.51
2022-02-27T09:08:00,mfh,50.56
2022-02-27T09:09:00,mfh,50.15
2022-02-27T09:10:00,mfh,49.71
2022-02-27T09:11:00,mfh,49.79
2022-02-27T09:12:00,mfh,49.35
2022-02-27T09:13:00,mfh,50.04
2022-02-27T09:14:00,mfh,50.48
2022-02-27T09:15:00,mfh,49.89
2022-02-27T09:16:00,mfh,49.76
2022-02-27T09:17:00,mfh,49.90
2022-02-27T09:18:00,mfh,49.34
2022-02-27T09:19:00,mfh,49.50
2022-02-27T09:20:00,mfh,49.09
2022-02-27T09:21:00,mfh,49.01
2022-02-27T09:22:00,mfh,49.08
2022-02-27T09:23:00,mfh,49.27
2022-02-27T09:24:00,mfh,49.27
2022-02-27T09:25:00,mfh,49.80
2022-02-27T09:26:00,mfh,48.00
2022-02-27T09:27:00,mfh,48.54
2022-02-27T09:28:00,mfh,47.03
2022-02-27T09:29:00,mfh,48.07
2022-02-27T09:30:00,mfh,49.75
2022-02-27T09:31:00,mfh,49.84
2022-02-27T09:32:00,mfh,49.81
2022-02-27T09:33:00,mfh,50.00
2022-02-27T09:34:00,mfh,48.23
2022-02-27T09:35:00,mfh,48.29
2022-02-27T09:36:00,mfh,68.05
2022-02-27T09:37:00,mfh,70.47
2022-02-27T09:38:00,mfh,72.03
2022-02-27T09:39:00,mfh,72.04
2022-02-27T09:40:00,mfh,73.22
2022-02-27T09:41:00,mfh,73.64
2022-02-27T09:42:00,mfh,74.31
2022-02-27T09:43:00,mfh,74.03
2022-02-27T09:44:00,mfh,73.83
2022-02-27T09:45:00,mfh,72.86
2022-02-27T09:46:00,mfh,72.95
2022-02-27T09:47:00,mfh,73.09
2022-02-27T09:48:00,mfh,73.00
2022-02-27T09:49:00,mfh,73.01
2022-02-27T09:50:00,mfh,72.98
2022-02-27T09:51:00,mfh,65.55
2022-02-27T09:52:00,mfh,65.15
2022-02-27T09:53:00,mfh,65.04
2022-02-27T09:54:00,mfh,51.65
2022-02-27T09:55:00,mfh,51.90
2022-02-27T09:56:00,mfh,51.68
2022-02-27T09:57:00,mfh,51.71
2022-02-27T09:58:00,mfh,51.57
2022-02-27T09:59:00,mfh,51.70
2022-02-27T10:00:00,mfh,51.82
2022-02-27T10:01:00,mfh,51.60
2022-02-27T10:02:00,mfh,51.29
2022-02-27T10:03:00,mfh,51.77
2022-02-27T10:04:00,mfh,52.43
2022-02-27T10:05:00,mfh,52.64
2022-02-27T10:06:00,mfh,51.64
2022-02-27T10:07:00,mfh,51.92
2022-02-27T10:08:00,mfh,50.49
2022-02-27T10:09:00,mfh,50.42
2022-02-27T10:10:00,mfh,51.56
2022-02-27T10:11:00,mfh,50.81
2022-02-27T10:12:00,mfh,51.82
2022-02-27T10:13:00,mfh,49.37
2022-02-27T10:14:00,mfh,50.11
2022-02-27T10:15:00,mfh,48.88
2022-02-27T10:16:00,mfh,49.93
2022-02-27T10:17:00,mfh,49.77
2022-02-27T10:18:00,mfh,50.18
2022-02-27T10:19:00,mfh,50.64
2022-02-27T10:20:00,mfh,50.97
2022-02-27T10:21:00,mfh,50.94
2022-02-27T10:22:00,mfh,52.16
2022-02-27T10:23:00,mfh,51.59
2022-02-27T10:24:00,mfh,52.54
2022-02-27T10:25:00,mfh,52.22
2022-02-27T10:26:00,mfh,52.02
2022-02-27T10:27:00,mfh,52.32
2022-02-27T10:28:00,mfh,51.34
2022-02-27T10:29:00,mfh,51.21
2022-02-27T10:30:00,mfh,51.37
2022-02-27T10:31:00,mfh,50.57
2022-02-27T10:32:00,mfh,50.61
2022-02-27T10:33:00,mfh,50.35
2022-02-27T10:34:00,mfh,49.66
2022-02-27T10:35:00,mfh,50.62
2022-02-27T10:36:00,mfh,50.37
2022-02-27T10:37:00,mfh,50.10
2022-02-27T10:38:00,mfh,50.67
2022-02-27T10:39:00,mfh,50.78
2022-02-27T10:40:00,mfh,50.38
2022-02-27T10:41:00,mfh,50.40
2022-02-27T10:42:00,mfh,49.94
2022-02-27T10:43:00,mfh,56.58
2022-02-27T10:44:00,mfh,75.20
2022-02-27T10:45:00,mfh,77.62
2022-02-27T10:46:00,mfh,79.62
2022-02-27T10:47:00,mfh,80.13
2022-02-27T10:48:00,mfh,79.95
2022-02-27T10:49:00,mfh,79.93
2022-02-27T10:50:00,mfh,80.13
2022-02-27T10:51:00,mfh,79.81
2022-02-27T10:52:00,mfh,78.96
2022-02-27T10:53:00,mfh,79.06
2022-02-27T10:54:00,mfh,78.97
2022-02-27T10:55:00,mfh,79.13
2022-02-27T10:56:00,mfh,79.55
2022-02-27T10:57:00,mfh,79.14
2022-02-27T10:58:00,mfh,79.30
2022-02-27T10:59:00,mfh,78.81
2022-02-27T11:00:00,mfh,78.20
2022-02-27T11:01:00,mfh,78.70
2022-02-27T11:02:00,mfh,77.61
2022-02-27T11:03:00,mfh,78.04
2022-02-27T11:04:00,mfh,78.14
2022-02-27T11:05:00,mfh,78.26
2022-02-27T11:06:00,mfh,77.91
2022-02-27T11:07:00,mfh,77.31
2022-02-27T11:08:00,mfh,77.34
2022-02-27T11:09:00,mfh,77.38
2022-02-27T11:10:00,mfh,77.26
2022-02-27T11:11:00,mfh,77.74
2022-02-27T11:12:00,mfh,77.93
2022-02-27T11:13:00,mfh,79.07
2022-02-27T11:14:00,mfh,78.66
2022-02-27T11:15:00,mfh,78.02
2022-02-27T11:16:00,mfh,77.49
2022-02-27T11:17:00,mfh,79.49
2022-02-27T11:18:00,mfh,79.00
2022-02-27T11:19:00,mfh,78.99
2022-02-27T11:20:00,mfh,79.82
2022-02-27T11:21:00,mfh,79.43
2022-02-27T11:22:00,mfh,79.49
2022-02-27T11:23:00,mfh,79.62
2022-02-27T11:24:00,mfh,79.04
2022-02-27T11:25:00,mfh,78.88
2022-02-27T11:26:00,mfh,79.01
2022-02-27T11:27:00,mfh,77.93
2022-02-27T11:28:00,mfh,65.63
2022-02-27T11:29:00,mfh,57.19
2022-02-27T11:30:00,mfh,57.17
2022-02-27T11:31:00,mfh,57.27
2022-02-27T11:32:00,mfh,57.24
2022-02-27T11:33:00,mfh,56.23
2022-02-27T11:34:00,mfh,55.85
2022-02-27T11:35:00,mfh,62.78
2022-02-27T11:36:00,mfh,64.34
2022-02-27T11:37:00,mfh,63.48
2022-02-27T11:38:00,mfh,63.47
2022-02-27T11:39:00,mfh,63.36
2022-02-27T11:40:00,mfh,64.01
2022-02-27T11:41:00,mfh,62.34
2022-02-27T11:42:00,mfh,62.84
2022-02-27T11:43:00,mfh,62.69
2022-02-27T11:44:00,mfh,64.06
2022-02-27T11:45:00,mfh,64.47
2022-02-27T11:46:00,mfh,65.23
2022-02-27T11:47:00,mfh,64.56
2022-02-27T11:48:00,mfh,64.36
2022-02-27T11:49:00,mfh,64.12
2022-02-27T11:50:00,mfh,63.64
2022-02-27T11:51:00,mfh,62.29
2022-02-27T11:52:00,mfh,64.12
2022-02-27T11:53:00,mfh,65.25
2022-02-27T11:54:00,mfh,65.12
2022-02-27T11:55:00,mfh,65.12
2022-02-27T11:56:00,mfh,65.10
2022-02-27T11:57:00,mfh,65.80
2022-02-27T11:58:00,mfh,65.07
2022-02-27T11:59:00,mfh,64.09
2022-02-27T12:00:00,mfh,63.97
2022-02-27T12:01:00,mfh,76.91
2022-02-27T12:02:00,mfh,79.42
2022-02-27T12:03:00,mfh,79.36
2022-02-27T12:04:00,mfh,79.38
2022-02-27T12:05:00,mfh,79.35
2022-02-27T12:06:00,mfh,78.60
2022-02-27T12:07:00,mfh,78.20
2022-02-27T12:08:00,mfh,77.93
2022-02-27T12:09:00,mfh,78.03
2022-02-27T12:10:00,mfh,78.40
2022-02-27T12:11:00,mfh,83.38
2022-02-27T12:12:00,mfh,84.39
2022-02-27T12:13:00,mfh,84.15
2022-02-27T12:14:00,mfh,83.63
2022-02-27T12:15:00,mfh,83.12
2022-02-27T12:16:00,mfh,83.32
2022-02-27T12:17:00,mfh,83.48
2022-02-27T12:18:00,mfh,83.59
2022-02-27T12:19:00,mfh,83.56
2022-02-27T12:20:00,mfh,83.51
2022-02-27T12:21:00,mfh,78.97
2022-02-27T12:22:00,mfh,73.16
2022-02-27T12:23:00,mfh,73.29
2022-02-27T12:24:00,mfh,72.74
2022-02-27T12:25:00,mfh,72.66
2022-02-27T12:26:00,mfh,72.63
2022-02-27T12:27:00,mfh,73.15
2022-02-27T12:28:00,mfh,72.91
2022-02-27T12:29:00,mfh,73.01
2022-02-27T12:30:00,mfh,73.12
2022-02-27T12:31:00,mfh,60.22
2022-02-27T12:32:00,mfh,59.28
2022-02-27T12:33:00,mfh,58.05
2022-02-27T12:34:00,mfh,59.51
2022-02-27T12:35:00,mfh,59.39
2022-02-27T12:36:00,mfh,59.89
2022-02-27T12:37:00,mfh,59.83
2022-02-27T12:38:00,mfh,58.83
2022-02-27T12:39:00,mfh,60.41
2022-02-27T12:40:00,mfh,57.45
2022-02-27T12:41:00,mfh,56.76
2022-02-27T12:42:00,mfh,56.64
2022-02-27T12:43:00,mfh,57.64
2022-02-27T12:44:00,mfh,58.30
2022-02-27T12:45:00,mfh,57.77
2022-02-27T12:46:00,mfh,57.95
2022-02-27T12:47:00,mfh,59.55
2022-02-27T12:48:00,mfh,72.52
2022-02-27T12:49:00,mfh,74.26
2022-02-27T12:50:00,mfh,73.62
2022-02-27T12:51:00,mfh,73.66
2022-02-27T12:52:00,mfh,73.91
2022-02-27T12:53:00,mfh,88.94
2022-02-27T12:54:00,mfh,89.45
2022-02-27T12:55:00,mfh,89.58
2022-02-27T12:56:00,mfh,89.43
2022-02-27T12:57:00,mfh,89.31
2022-02-27T12:58:00,mfh,89.13
2022-02-27T12:59:00,mfh,89.11
2022-02-27T13:00:00,mfh,88.92
2022-02-27T13:01:00,mfh,88.83
2022-02-27T13:02:00,mfh,88.90
2022-02-27T13:03:00,mfh,88.83
2022-02-27T13:04:00,mfh,88.71
2022-02-27T13:05:00,mfh,88.61
2022-02-27T13:06:00,mfh,88.40
2022-02-27T13:07:00,mfh,88.07
2022-02-27T13:08:00,mfh,88.21
2022-02-27T13:09:00,mfh,87.77
2022-02-27T13:10:00,mfh,87.92
2022-02-27T13:11:00,mfh,87.95
2022-02-27T13:12:00,mfh,87.99
2022-02-27T13:13:00,mfh,87.99
2022-02-27T13:14:00,mfh,87.65
2022-02-27T13:15:00,mfh,87.37
2022-02-27T13:16:00,mfh,87.27
2022-02-27T13:17:00,mfh,87.21
2022-02-27T13:18:00,mfh,87.11